Location: Newark
(22.3145°N, 88.6625°E)
Time: 19:29:42
(UTC+00:00)

N. Korean satellite - Visible Passes

Search period start: 15 October 2019 00:00
Search period end: 25 October 2019 00:00
Orbit: 455 x 508 km, 97.2° (Epoch: 14 October)

Date Brightness Start Highest point End Pass type
(mag) Time Alt. Az. Time Alt. Az. Time Alt. Az.
16 Oct 10.3 12:20:18 10° WSW 12:21:47 12° W 12:23:16 10° WNW visible
17 Oct 8.3 23:28:52 10° NNE 23:32:18 39° E 23:35:45 10° S visible
18 Oct 10.0 23:04:35 10° NE 23:06:59 17° E 23:09:24 10° SE visible
20 Oct 10.0 12:11:47 10° SW 12:13:57 16° W 12:16:08 10° WNW visible
21 Oct 8.9 23:21:14 10° NE 23:24:30 30° E 23:27:47 10° SSE visible
22 Oct 10.3 22:57:23 10° ENE 22:59:10 13° E 23:00:56 10° SE visible
24 Oct 9.6 12:03:26 10° SSW 12:06:05 21° W 12:08:43 10° NW visible
24 Oct 7.4 23:38:20 10° NNE 23:41:58 59° E 23:45:37 10° S visible
